Current Weather Conditions
Home Hang gliding Paragliding Powered Parachute Powered Paragliding Skydiving Ultralight Weather Aviation Shirts
WEATHER DATA:
Weather observations for the past three days for
Fort Campbell U. S. Army Airfield
Imperial (Metric)
Date Time (cdt) Wind (mph) Vis. (mi.) Weather Sky Cond. Temperature (F) Relative Humidity Wind Chill (F) Heat Index (F) Pressure Precipitation (in)
Air Dwpt 6 hour altimeter (in) sea level (mb) 1 hr 3 hr 6 hr
Max. Min.
24 21:55 SW 5 10.00 Fair CLR 77.2 72.7 86% 79 30.14 1020.3
24 20:55 SW 3 10.00 Fair CLR 78.6 72.7 82% 82 30.13 1019.9
24 19:55 Calm 10.00 Fair CLR 81 71.4 73% 85 30.13 1019.9
24 18:55 S 5 10.00 Fair CLR 82.4 72 86 81.5 71% 87 30.11 1019.2
24 17:55 S 6 10.00 Fair CLR 84.2 72.9 69% 91 30.11 1019.2
24 16:55 SW 5 10.00 A Few Clouds FEW160 FEW190 FEW220 83.8 69.8 63% 88 30.11 1019.2
24 15:55 S 3 10.00 Partly Cloudy FEW160 SCT190 83.8 68 59% 87 30.11 1019.2
24 14:55 N 3 10.00 Mostly Cloudy BKN033 BKN200 83.1 69.6 64% 87 30.13 1019.9
24 13:55 E 5 10.00 Mostly Cloudy FEW027 FEW110 FEW130 SCT150 BKN190 83.5 70.9 66% 88 30.14 1020.2
24 12:55 Calm 10.00 Partly Cloudy FEW120 FEW150 SCT190 81.5 70.7 81.9 72.1 70% 85 30.16 1020.9
24 11:55 N 5 10.00 Mostly Cloudy BKN020 BKN170 80.6 72.3 76% 85 30.16 1020.9
24 10:55 NW 3 10.00 Partly Cloudy FEW018 SCT026 SCT200 80.2 72 76% 84 30.17 1021.3
24 09:55 Calm 10.00 Mostly Cloudy BKN010 BKN200 78.6 72.3 81% 82 30.16 1020.9
24 08:55 SW 6 10.00 Partly Cloudy SCT006 SCT021 75.9 72.3 89% 76 30.17 1021.3
24 07:55 Calm 10.00 Partly Cloudy SCT018 73.2 70 90% 30.16 1021.0
24 06:55 Calm 10.00 A Few Clouds FEW003 72 70.2 73.6 71.2 94% 30.14 1020.3
24 05:55 Calm 10.00 A Few Clouds FEW004 71.6 69.8 94% 30.13 1020.0
24 04:55 Calm 10.00 Fair CLR 72 70.2 94% 30.11 1019.3
24 03:55 Calm 10.00 Fair CLR 72.5 70.3 93% 30.11 1019.2
24 02:55 Calm 10.00 Fair CLR 72.5 70 92% 30.11 1019.3
24 01:55 Calm 10.00 A Few Clouds FEW020 FEW026 72.5 70.3 93% 30.1 1019.0
24 00:55 Calm 8.00 Fair CLR 72.5 70.9 78.8 72.5 95% 30.11 1019.3
23 23:55 Calm 10.00 Fair CLR 73.8 71.2 92% 30.11 1019.3
23 22:55 Calm 10.00 Fair CLR 74.5 71.1 89% 30.11 1019.3
23 21:55 W 3 10.00 Mostly Cloudy BKN130 75.4 70.2 84% 76 30.1 1019.0
23 20:55 SW 5 10.00 Partly Cloudy SCT130 76.3 71.4 85% 77 30.09 1018.6
23 19:55 SW 5 10.00 A Few Clouds FEW130 77 72.9 87% 78 30.07 1017.9
23 18:55 Calm 10.00 Fair CLR 78.4 72.5 80.2 77.2 82% 81 30.05 1017.3
23 17:55 NW 3 10.00 Fair CLR 79.7 71.8 77% 83 30.05 1017.2
23 16:55 Calm 10.00 A Few Clouds FEW170 79.9 70.7 74% 83 30.05 1017.3
23 15:55 NW 5 10.00 Mostly Cloudy SCT015 BKN150 80.2 72.3 77% 84 30.05 1017.2
23 14:55 W 5 10.00 Light Drizzle FEW014 FEW150 SCT190 78.3 72.3 82% 81 30.05 1017.3
23 13:55 Calm 10.00 Light Drizzle FEW100 SCT130 SCT170 SCT200 77.9 71.2 80% 80 30.07 1017.9
23 12:55 W 3 10.00 Partly Cloudy FEW012 SCT180 77.2 71.2 77.5 71.6 82% 79 30.08 1018.3 0.02
23 11:55 SW 5 10.00 Light Drizzle SCT012 SCT190 76.5 71.2 84% 77 30.08 1018.3
23 10:55 S 6 10.00 Partly Cloudy SCT007 75.4 71.6 88% 75 30.09 1018.7
23 09:55 S 3 10.00 Light Drizzle FEW005 SCT045 BKN100 74.3 71.4 91% 30.08 1018.3 0.01 0.02
23 09:09 Calm 10.00 Mostly Cloudy SCT045 BKN100 73.4 71.6 94% 30.07 1018.0
23 08:55 Calm 10.00 Fair CLR 73.4 70.9 92% 30.07 1018.0 0.01
23 05:55 E 3 10.00 Partly Cloudy SCT130 71.8 69.3 92% 30.02 1016.2
23 04:55 Calm 10.00 Fair CLR 70.2 68.4 94% 30.01 1015.8
23 03:55 Calm 10.00 Fair CLR 72 69.1 91% 30.01 1015.8
23 02:55 Calm 10.00 Fair CLR 72.1 69.1 90% 30 1015.6
23 01:55 SE 3 10.00 A Few Clouds FEW210 72.5 69.1 89% 30 1015.6
23 00:55 Calm 10.00 Fair CLR 72 68.9 81.1 70.2 90% 30.01 1015.8
22 23:55 Calm 10.00 Fair CLR 70.2 67.6 92% 30.01 1015.8
22 22:55 Calm 10.00 Fair CLR 71.6 68.2 89% 30.01 1015.9
22 21:55 Calm 10.00 A Few Clouds FEW100 74.5 68.5 82% 30.01 1015.9
22 20:55 S 3 10.00 A Few Clouds FEW080 74.8 68.2 80% 29.99 1015.2
22 19:55 SE 8 10.00 Fair CLR 76.8 69.1 77% 78 29.98 1014.9
22 18:55 NE 7 10.00 Fair CLR 81.1 69.4 87.1 73.4 68% 84 29.96 1014.2 0.24
22 17:55 NE 10 10.00 A Few Clouds FEW030 80.4 69.6 70% 84 29.94 1013.5
22 16:55 NW 12 10.00 A Few Clouds FEW032 83.8 70.3 64% 88 29.94 1013.4
22 15:55 NW 3 10.00 Fair CLR 84.6 70 62% 89 29.95 1013.8 0.24
22 14:55 SW 5 10.00 A Few Clouds FEW020 FEW130 FEW200 80.1 68.9 69% 83 29.96 1014.2 0.24
22 13:55 S 8 10.00 Partly Cloudy FEW080 FEW100 FEW150 SCT180 77.7 68.4 73% 80 29.99 1015.2
22 12:55 W 5 10.00 Thunderstorm in Vicinity Light Rain FEW011 FEW022 FEW036 SCT043 81.1 71.2 83.5 71.6 72% 85 30 1015.5
22 11:55 W 3 10.00 Partly Cloudy SCT022 SCT120 82.4 72 71% 87 30.01 1015.8
22 10:55 W 5 10.00 Mostly Cloudy FEW014 FEW120 SCT150 BKN180 BKN200 80.1 72.5 78% 84 30.01 1015.8
22 08:55 Calm 10.00 Mostly Cloudy BKN008 75.2 71.1 87% 75 30.01 1015.9
22 07:55 SW 3 9.00 Overcast OVC002 72.3 70.7 95% 30.01 1015.9
22 06:55 SW 3 0.50 Light Drizzle OVC003 71.8 70.2 73.2 71.4 95% 29.98 1014.9
22 05:55 Calm 10.00 Overcast FEW005 BKN030 OVC060 72.1 70.3 94% 29.97 1014.6
22 04:55 Calm 9.00 Mostly Cloudy FEW005 BKN120 72.5 70.9 95% 29.97 1014.5
22 03:55 E 3 10.00 Mostly Cloudy SCT007 BKN130 72.9 71.1 94% 29.96 1014.1
22 02:55 Calm 10.00 Partly Cloudy FEW065 SCT130 72.7 70.2 92% 29.97 1014.4
22 01:55 NW 3 10.00 Fair CLR 72.1 70 93% 29.97 1014.4
22 00:55 Calm 10.00 Light Drizzle FEW017 SCT100 72.3 70.2 75.7 69.6 93% 29.99 1015.2 0.06 0.18
21 23:55 Calm 10.00 Light Rain FEW008 71.8 70 94% 30.02 1016.2 0.05
21 22:55 SW 6 8.00 Thunderstorm Light Rain OVC024 73.2 71.1 93% 30 1015.5 0.07
Date Time (cdt) Wind (mph) Vis. (mi.) Weather Sky Cond. Air Dwpt Max. Min. Relative Humidity Wind Chill (F) Heat Index (F) altimeter (in) sea level (mb) 1 hr 3 hr 6 hr
6 hour
Temperature (F) Pressure Precipitation (in)
3 day Weather History for - KHOP
Weather observations for the past three days for
Fort Campbell U. S. Army Airfield
Imperial (Metric)
Date Time (cdt) Wind (mph) Vis. (mi.) Weather Sky Cond. Temperature (F) Relative Humidity Wind Chill (F) Heat Index (F) Pressure Precipitation (in)
Air Dwpt 6 hour altimeter (in) sea level (mb) 1 hr 3 hr 6 hr
Max. Min.
24 21:55 SW 5 10.00 Fair CLR 77.2 72.7 86% 79 30.14 1020.3
24 20:55 SW 3 10.00 Fair CLR 78.6 72.7 82% 82 30.13 1019.9
24 19:55 Calm 10.00 Fair CLR 81 71.4 73% 85 30.13 1019.9
24 18:55 S 5 10.00 Fair CLR 82.4 72 86 81.5 71% 87 30.11 1019.2
24 17:55 S 6 10.00 Fair CLR 84.2 72.9 69% 91 30.11 1019.2
24 16:55 SW 5 10.00 A Few Clouds FEW160 FEW190 FEW220 83.8 69.8 63% 88 30.11 1019.2
24 15:55 S 3 10.00 Partly Cloudy FEW160 SCT190 83.8 68 59% 87 30.11 1019.2
24 14:55 N 3 10.00 Mostly Cloudy BKN033 BKN200 83.1 69.6 64% 87 30.13 1019.9
24 13:55 E 5 10.00 Mostly Cloudy FEW027 FEW110 FEW130 SCT150 BKN190 83.5 70.9 66% 88 30.14 1020.2
24 12:55 Calm 10.00 Partly Cloudy FEW120 FEW150 SCT190 81.5 70.7 81.9 72.1 70% 85 30.16 1020.9
24 11:55 N 5 10.00 Mostly Cloudy BKN020 BKN170 80.6 72.3 76% 85 30.16 1020.9
24 10:55 NW 3 10.00 Partly Cloudy FEW018 SCT026 SCT200 80.2 72 76% 84 30.17 1021.3
24 09:55 Calm 10.00 Mostly Cloudy BKN010 BKN200 78.6 72.3 81% 82 30.16 1020.9
24 08:55 SW 6 10.00 Partly Cloudy SCT006 SCT021 75.9 72.3 89% 76 30.17 1021.3
24 07:55 Calm 10.00 Partly Cloudy SCT018 73.2 70 90% 30.16 1021.0
24 06:55 Calm 10.00 A Few Clouds FEW003 72 70.2 73.6 71.2 94% 30.14 1020.3
24 05:55 Calm 10.00 A Few Clouds FEW004 71.6 69.8 94% 30.13 1020.0
24 04:55 Calm 10.00 Fair CLR 72 70.2 94% 30.11 1019.3
24 03:55 Calm 10.00 Fair CLR 72.5 70.3 93% 30.11 1019.2
24 02:55 Calm 10.00 Fair CLR 72.5 70 92% 30.11 1019.3
24 01:55 Calm 10.00 A Few Clouds FEW020 FEW026 72.5 70.3 93% 30.1 1019.0
24 00:55 Calm 8.00 Fair CLR 72.5 70.9 78.8 72.5 95% 30.11 1019.3
23 23:55 Calm 10.00 Fair CLR 73.8 71.2 92% 30.11 1019.3
23 22:55 Calm 10.00 Fair CLR 74.5 71.1 89% 30.11 1019.3
23 21:55 W 3 10.00 Mostly Cloudy BKN130 75.4 70.2 84% 76 30.1 1019.0
23 20:55 SW 5 10.00 Partly Cloudy SCT130 76.3 71.4 85% 77 30.09 1018.6
23 19:55 SW 5 10.00 A Few Clouds FEW130 77 72.9 87% 78 30.07 1017.9
23 18:55 Calm 10.00 Fair CLR 78.4 72.5 80.2 77.2 82% 81 30.05 1017.3
23 17:55 NW 3 10.00 Fair CLR 79.7 71.8 77% 83 30.05 1017.2
23 16:55 Calm 10.00 A Few Clouds FEW170 79.9 70.7 74% 83 30.05 1017.3
23 15:55 NW 5 10.00 Mostly Cloudy SCT015 BKN150 80.2 72.3 77% 84 30.05 1017.2
23 14:55 W 5 10.00 Light Drizzle FEW014 FEW150 SCT190 78.3 72.3 82% 81 30.05 1017.3
23 13:55 Calm 10.00 Light Drizzle FEW100 SCT130 SCT170 SCT200 77.9 71.2 80% 80 30.07 1017.9
23 12:55 W 3 10.00 Partly Cloudy FEW012 SCT180 77.2 71.2 77.5 71.6 82% 79 30.08 1018.3 0.02
23 11:55 SW 5 10.00 Light Drizzle SCT012 SCT190 76.5 71.2 84% 77 30.08 1018.3
23 10:55 S 6 10.00 Partly Cloudy SCT007 75.4 71.6 88% 75 30.09 1018.7
23 09:55 S 3 10.00 Light Drizzle FEW005 SCT045 BKN100 74.3 71.4 91% 30.08 1018.3 0.01 0.02
23 09:09 Calm 10.00 Mostly Cloudy SCT045 BKN100 73.4 71.6 94% 30.07 1018.0
23 08:55 Calm 10.00 Fair CLR 73.4 70.9 92% 30.07 1018.0 0.01
23 05:55 E 3 10.00 Partly Cloudy SCT130 71.8 69.3 92% 30.02 1016.2
23 04:55 Calm 10.00 Fair CLR 70.2 68.4 94% 30.01 1015.8
23 03:55 Calm 10.00 Fair CLR 72 69.1 91% 30.01 1015.8
23 02:55 Calm 10.00 Fair CLR 72.1 69.1 90% 30 1015.6
23 01:55 SE 3 10.00 A Few Clouds FEW210 72.5 69.1 89% 30 1015.6
23 00:55 Calm 10.00 Fair CLR 72 68.9 81.1 70.2 90% 30.01 1015.8
22 23:55 Calm 10.00 Fair CLR 70.2 67.6 92% 30.01 1015.8
22 22:55 Calm 10.00 Fair CLR 71.6 68.2 89% 30.01 1015.9
22 21:55 Calm 10.00 A Few Clouds FEW100 74.5 68.5 82% 30.01 1015.9
22 20:55 S 3 10.00 A Few Clouds FEW080 74.8 68.2 80% 29.99 1015.2
22 19:55 SE 8 10.00 Fair CLR 76.8 69.1 77% 78 29.98 1014.9
22 18:55 NE 7 10.00 Fair CLR 81.1 69.4 87.1 73.4 68% 84 29.96 1014.2 0.24
22 17:55 NE 10 10.00 A Few Clouds FEW030 80.4 69.6 70% 84 29.94 1013.5
22 16:55 NW 12 10.00 A Few Clouds FEW032 83.8 70.3 64% 88 29.94 1013.4
22 15:55 NW 3 10.00 Fair CLR 84.6 70 62% 89 29.95 1013.8 0.24
22 14:55 SW 5 10.00 A Few Clouds FEW020 FEW130 FEW200 80.1 68.9 69% 83 29.96 1014.2 0.24
22 13:55 S 8 10.00 Partly Cloudy FEW080 FEW100 FEW150 SCT180 77.7 68.4 73% 80 29.99 1015.2
22 12:55 W 5 10.00 Thunderstorm in Vicinity Light Rain FEW011 FEW022 FEW036 SCT043 81.1 71.2 83.5 71.6 72% 85 30 1015.5
22 11:55 W 3 10.00 Partly Cloudy SCT022 SCT120 82.4 72 71% 87 30.01 1015.8
22 10:55 W 5 10.00 Mostly Cloudy FEW014 FEW120 SCT150 BKN180 BKN200 80.1 72.5 78% 84 30.01 1015.8
22 08:55 Calm 10.00 Mostly Cloudy BKN008 75.2 71.1 87% 75 30.01 1015.9
22 07:55 SW 3 9.00 Overcast OVC002 72.3 70.7 95% 30.01 1015.9
22 06:55 SW 3 0.50 Light Drizzle OVC003 71.8 70.2 73.2 71.4 95% 29.98 1014.9
22 05:55 Calm 10.00 Overcast FEW005 BKN030 OVC060 72.1 70.3 94% 29.97 1014.6
22 04:55 Calm 9.00 Mostly Cloudy FEW005 BKN120 72.5 70.9 95% 29.97 1014.5
22 03:55 E 3 10.00 Mostly Cloudy SCT007 BKN130 72.9 71.1 94% 29.96 1014.1
22 02:55 Calm 10.00 Partly Cloudy FEW065 SCT130 72.7 70.2 92% 29.97 1014.4
22 01:55 NW 3 10.00 Fair CLR 72.1 70 93% 29.97 1014.4
22 00:55 Calm 10.00 Light Drizzle FEW017 SCT100 72.3 70.2 75.7 69.6 93% 29.99 1015.2 0.06 0.18
21 23:55 Calm 10.00 Light Rain FEW008 71.8 70 94% 30.02 1016.2 0.05
21 22:55 SW 6 8.00 Thunderstorm Light Rain OVC024 73.2 71.1 93% 30 1015.5 0.07
Date Time (cdt) Wind (mph) Vis. (mi.) Weather Sky Cond. Air Dwpt Max. Min. Relative Humidity Wind Chill (F) Heat Index (F) altimeter (in) sea level (mb) 1 hr 3 hr 6 hr
6 hour
Temperature (F) Pressure Precipitation (in)


Weather History V4.0 ©2002- Airsports Net